Hourly Weather Roundup
Issued by NWS Central Illinois

Home | Current Version | Previous Version | Text Only | Print | Product List | Glossary On
Versions: 1 2 3 4 5 6 7 8 9 10 11 12 13 14 15 16 17 18 19 20 21 22 23 24 25 26 27 28 29 30 31 32 33 34 35 36 37 38 39 40 41 42 43 44 45 46 47 48 49 50
000
NZUS43 KILX 032210
HWRILX

AREA WEATHER ROUNDUP
NATIONAL WEATHER SERVICE, LINCOLN IL
500 PM CDT THU SEP 03 2015


CITY           SKY/WX    TMP DP  RH WIND       PRES   REMARKS
BLOOMINGTON    MOSUNNY   93  66  40 W7        29.93F HX  95
CHAMPAIGN      MOSUNNY   91  66  43 SW7       29.93S HX  93
DANVILLE       MOSUNNY   87  69  54 W6        29.90S HAZE    HX  90
DECATUR        PTSUNNY   92  66  42 S12       29.92F HX  94
EFFINGHAM      MOSUNNY   91  60  35 SW6       29.95S HX  91
FLORA          MOSUNNY   92  62  37 W7        29.94S HX  92
GALESBURG      MOSUNNY   89  68  51 S8        29.91S HX  92
JACKSONVILLE   SUNNY     93  66  40 SW6G16    29.91F HX  95
LACON          SUNNY     90  68  47 SW7       29.89S HX  94
LAWRENCEVILLE  SUNNY     92  65  40 S5        29.93F HX  94
LITCHFIELD     SUNNY     90  64  41 SW7       29.94S HX  91
$$


CITY           SKY/WX    TMP DP  RH WIND       PRES   REMARKS
LINCOLN        MOSUNNY   95  62  33 SW3       29.89S HX  96
MACOMB         SUNNY     92  64  39 W7        29.92F HX  94
MATTOON        MOSUNNY   91  63  39 SW7       29.93F HX  92
MT CARMEL AP   MOSUNNY   91  63  38 SW8       29.93F HX  92
OLNEY-NOBLE AP PTSUNNY   90  68  48 SW3       29.94S HX  93
PARIS          SUNNY     91  67  46 SW7       29.93F HX  94
PEORIA         SUNNY     94  65  38 SW12      29.90F HX  96
PONTIAC        SUNNY     90  70  51 W7        29.91F HX  96
RANTOUL        NOT AVBL
ROBINSON       PTSUNNY   90  65  43 SW5       29.94S HX  92
SPRINGFIELD    MOSUNNY   94  66  39 SW8       29.91F HX  97
TAYLORVILLE    SUNNY     90  66  45 SW7       29.92F HX  92
$$

...REGIONAL REPORTS...


CITY           SKY/WX    TMP DP  RH WIND       PRES   REMARKS
CHICAGO O`HARE MOSUNNY   89  69  51 W15       29.87F HX  93
KANKAKEE       MOSUNNY   90  70  52 SW8       29.91S HX  95
MOLINE         SUNNY     92  68  45 W9        29.88S HX  96
MOUNT STERLING SUNNY     90  67  45 SW7       29.91S HX  93
MOUNT VERNON   SUNNY     90  66  45 S7        29.95S HX  92
PITTSFIELD     SUNNY     93  64  37 S6        29.93S HX  94
QUINCY         SUNNY     92  64  39 SW7       29.91F HX  93
ROCKFORD       MOSUNNY   89  72  56 W8        29.90F HX  96
$$


CITY           SKY/WX    TMP DP  RH WIND       PRES   REMARKS
BURLINGTON     MOSUNNY   92  67  43 W6        29.89F HAZE    HX  95
CEDAR RAPIDS   MOSUNNY   88  75  65 S9        29.88S HX  97
DES MOINES     MOSUNNY   91  70  49 S13       29.85F HX  96
KIRKSVILLE     SUNNY     90  66  45 SW9       29.91F HX  92
OTTUMWA        SUNNY     89  71  55 SW10      29.87S HX  95
ST LOUIS       MOSUNNY   93  67  42 SW8       29.93F HX  96
$$


CITY           SKY/WX    TMP DP  RH WIND       PRES   REMARKS
TERRE HAUTE    SUNNY     91  64  40 W7        29.93F HX  92
EVANSVILLE     SUNNY     91  65  41 N3        29.94F HX  93
INDIANAPOLIS   MOSUNNY   89  65  44 SW14      29.94F HX  91
LAFAYETTE      SUNNY     89  63  41 W10       29.91F HX  90
MADISON        PTSUNNY   84  73  69 NE13      29.90S HX  90
MILWAUKEE      MOSUNNY   74  67  78 NE10      29.91R
$$





USA.gov is the U.S. government's official web portal to all federal, state and local government web resources and services.